Temperature
3 2 3 3 3 3 3 3 4 4 4 4 4 4 5 5 5 6 6 6 6 6 7 7 7 7 7 7 7 7 7 7 7 7 7 7 7 7 7 7 7 8 8
2 2 2 2 3 3 3 3 3 3 3 4 4 4 4 4 5 5 5 5 6 6 6 6 6 6 6 6 6 6 6 6 6 6 6 6 6 6 7 7 7 7 7
2 2 2 2 2 2 2 2 2 3 3 3 3 3 3 4 4 5 5 5 5 5 6 6 6 6 6 6 6 6 6 6 6 6 6 6 6 6 6 6 6 6 6
1 1 1 1 1 1 2 2 2 2 2 2 3 3 3 3 4 4 4 4 5 5 5 5 5 5 5 6 6 6 6 6 5 5 5 6 6 5 5 5 6 6 6
1 1 1 1 1 1 1 1 2 2 2 2 2 2 2 3 3 3 3 4 4 4 4 5 5 5 5 5 5 5 5 5 5 5 5 5 6 6 5 5 5 5 5
0 0 0 1 1 1 1 1 1 1 2 2 2 2 2 2 2 3 3 3 3 4 4 4 4 4 4 4 4 5 5 5 5 5 5 5 5 5 5 5 5 5 5
0 -0 -0 0 0 0 0 0 1 1 1 1 1 1 2 2 2 2 2 3 3 3 3 3 3 3 4 4 4 4 4 4 4 4 5 4 5 5 5 5 4 4 4
-0 -0 -0 -0 -0 -0 -0 -0 0 0 1 1 1 1 1 1 2 2 2 2 2 2 2 3 3 3 3 3 3 3 3 4 4 4 4 4 4 4 4 4 4 4 4
-1 -1 -1 -1 -1 -1 -1 -0 -0 0 0 0 1 1 1 1 1 1 1 1 2 2 2 2 2 2 2 2 2 3 3 3 3 3 3 4 4 4 4 4 4 4 3
-1 -1 -1 -1 -1 -1 -1 -1 -1 -0 0 0 0 0 1 1 1 1 1 1 1 1 1 1 2 2 2 2 2 2 2 2 3 3 3 3 3 3 3 3 3 3 3
-1 -1 -1 -1 -1 -1 -1 -1 -1 -1 -0 -0 -0 -0 0 0 0 0 0 1 1 1 1 1 1 1 1 2 2 2 2 2 2 2 2 2 2 3 3 3 3 3 3
-2 -2 -2 -2 -2 -1 -1 -1 -1 -1 -1 -1 -1 -1 -1 -1 -1 -0 -0 -0 0 0 0 1 1 1 1 1 1 1 1 2 2 2 2 2 2 2 2 2 2 2 2
-2 -2 -2 -2 -2 -2 -2 -2 -2 -1 -1 -1 -1 -1 -1 -1 -1 -1 -1 -1 -0 -0 -0 0 0 0 0 1 1 1 1 1 1 1 1 1 1 2 2 2 2 2 2
-3 -3 -3 -3 -3 -2 -2 -2 -2 -2 -2 -2 -2 -2 -2 -2 -2 -1 -1 -1 -1 -1 -0 -0 -0 -0 -0 0 0 0 1 1 1 1 1 1 1 1 1 1 1 1 1
-4 -4 -3 -3 -3 -3 -3 -3 -3 -2 -2 -2 -2 -2 -2 -2 -2 -2 -2 -2 -2 -1 -1 -1 -1 -1 -0 -0 -0 -0 0 0 0 0 0 0 1 1 1 1 1 1 1
-4 -4 -4 -4 -3 -3 -3 -3 -3 -3 -3 -3 -3 -3 -3 -3 -3 -3 -3 -2 -2 -2 -2 -1 -1 -1 -1 -1 -1 -1 -1 -1 -0 -0 -0 -0 0 0 0 0 1 1 1
-4 -4 -4 -4 -4 -4 -4 -4 -3 -3 -3 -3 -3 -3 -3 -3 -3 -3 -3 -3 -3 -2 -2 -2 -2 -2 -1 -1 -1 -1 -1 -1 -1 -1 -1 -1 -0 -0 -0 -0 0 0 0
-5 -5 -5 -4 -4 -4 -4 -4 -4 -4 -4 -4 -4 -4 -4 -3 -4 -3 -3 -3 -3 -3 -3 -2 -2 -2 -2 -2 -2 -2 -2 -2 -1 -1 -1 -1 -1 -1 -1 -0 -0 -0 0
-5 -5 -5 -5 -5 -4 -4 -4 -4 -4 -4 -4 -4 -4 -4 -4 -4 -4 -4 -4 -3 -3 -3 -3 -3 -3 -3 -2 -2 -2 -2 -2 -2 -2 -2 -1 -1 -1 -1 -1 -1 -1 -1
-5 -5 -5 -5 -5 -5 -5 -5 -4 -4 -4 -5 -5 -4 -4 -4 -4 -4 -4 -4 -4 -4 -4 -4 -4 -3 -3 -3 -3 -3 -3 -3 -3 -3 -2 -2 -2 -2 -2 -2 -1 -1 -1
-6 -6 -6 -6 -6 -5 -5 -5 -5 -5 -5 -5 -5 -5 -5 -5 -5 -4 -4 -4 -4 -4 -4 -4 -4 -4 -4 -3 -3 -3 -4 -3 -3 -3 -3 -3 -3 -2 -2 -2 -2 -2 -2
-6 -6 -6 -6 -6 -6 -6 -6 -6 -6 -6 -6 -5 -5 -5 -5 -5 -5 -5 -5 -5 -5 -5 -5 -4 -4 -4 -4 -4 -4 -4 -4 -4 -4 -4 -4 -3 -3 -3 -3 -3 -2 -2
-7 -7 -7 -6 -6 -6 -6 -6 -6 -6 -6 -6 -6 -6 -6 -6 -6 -6 -5 -5 -5 -5 -5 -5 -5 -5 -5 -5 -5 -5 -5 -5 -5 -5 -4 -4 -4 -4 -3 -3 -3 -3 -3
-7 -7 -7 -7 -7 -7 -7 -7 -7 -7 -7 -7 -7 -6 -6 -6 -6 -6 -6 -6 -6 -6 -6 -6 -6 -6 -6 -6 -5 -5 -5 -5 -5 -5 -5 -4 -4 -4 -4 -4 -4 -4 -4
-8 -8 -8 -8 -7 -7 -7 -8 -7 -7 -7 -7 -7 -7 -7 -7 -7 -7 -7 -7 -7 -7 -6 -6 -6 -6 -6 -6 -6 -6 -6 -6 -6 -6 -5 -5 -5 -5 -4 -4 -4 -4 -4
-8 -8 -8 -8 -8 -8 -8 -8 -8 -8 -8 -8 -8 -8 -8 -8 -8 -8 -8 -7 -7 -7 -7 -7 -7 -7 -7 -7 -7 -7 -6 -6 -6 -6 -6 -6 -6 -5 -5 -5 -5 -5 -5
Wind_Speed
3 3 3 2 2 3 3 2 1 1 1 1 1 2 1 1 1 1 2 2 2 1 2 3 3 3 3 3 4 4 4 3 3 3 2 2 2 2 1 1 2 2 2
4 3 3 2 2 2 2 2 1 1 1 1 2 2 2 2 1 1 2 1 2 1 2 3 3 3 3 3 4 4 4 3 3 3 4 2 2 2 1 1 1 1 1
4 4 3 3 2 2 2 2 2 2 2 1 1 1 1 2 1 1 2 1 1 1 1 2 3 3 3 3 5 5 5 5 4 3 3 3 3 2 2 2 2 1 1
4 4 4 4 3 3 3 3 3 2 2 2 3 3 3 3 2 2 2 2 2 1 2 3 3 3 3 3 4 5 5 6 5 4 2 2 1 2 2 3 3 2 2
4 4 5 4 4 3 3 3 3 2 2 2 3 4 4 3 2 2 2 2 2 2 2 2 3 3 3 3 4 4 6 6 6 4 3 3 3 3 3 3 3 2 2
4 4 5 4 4 3 3 3 3 2 2 2 3 4 5 4 3 4 3 3 2 2 2 2 2 3 3 4 4 4 5 5 6 5 4 4 3 4 3 3 4 3 2
4 4 5 4 4 4 4 3 3 2 2 3 3 3 3 4 4 4 4 3 3 2 3 2 3 3 3 4 4 4 4 5 6 6 5 4 4 3 3 3 3 3 2
5 5 5 5 5 5 4 4 3 3 3 3 3 3 3 3 3 5 4 4 3 3 3 3 4 4 4 4 3 4 4 4 5 6 6 5 4 3 3 3 3 3 2
6 6 5 5 5 5 5 4 4 4 3 3 3 3 3 3 4 5 5 4 4 3 4 4 4 4 4 4 4 4 4 5 5 5 6 5 4 4 4 3 4 4 4
7 7 6 6 5 5 4 5 4 3 3 3 3 3 3 4 5 4 4 4 4 4 4 4 4 4 4 5 5 5 5 5 5 4 5 5 5 5 4 4 4 4 4
8 7 6 6 5 4 4 4 3 3 3 3 3 3 2 3 3 3 4 4 4 4 5 5 5 5 5 5 5 5 5 5 5 4 5 5 5 5 5 5 4 4 4
8 7 6 5 4 4 4 4 4 4 3 3 2 2 2 2 2 2 3 3 4 4 4 4 5 5 6 6 6 6 6 6 6 6 5 6 5 6 5 5 5 5 5
8 7 6 5 5 4 4 4 4 4 3 2 2 2 2 2 2 2 3 3 3 3 4 4 5 5 5 6 7 7 7 7 7 6 7 6 6 6 5 6 6 5 4
7 7 7 6 5 4 4 4 4 4 3 2 2 2 2 2 3 3 3 3 3 3 4 4 5 5 6 6 6 6 6 7 7 7 7 7 7 8 7 6 6 5 5
8 8 7 7 6 5 4 4 4 4 3 2 2 3 3 3 3 3 3 3 4 4 4 4 4 5 5 5 6 6 6 7 7 7 7 7 7 8 7 6 7 7 6
10 8 8 7 6 5 5 4 4 4 3 3 3 3 3 3 3 3 3 3 4 4 4 4 4 4 4 5 6 7 7 7 7 7 7 7 7 8 8 8 8 8 8
10 9 8 7 6 5 5 5 5 4 3 3 3 3 3 3 3 3 3 4 4 4 4 4 4 5 5 6 7 8 7 7 7 7 7 6 6 7 7 7 7 7 9
9 8 6 6 6 5 5 4 4 3 3 4 3 3 3 3 3 3 4 4 3 3 4 4 5 5 5 6 7 7 7 6 6 7 7 7 6 6 6 6 6 7 7
8 7 6 5 5 5 5 4 4 4 4 4 4 4 4 4 4 4 4 4 3 4 4 4 5 5 5 5 6 6 5 5 6 6 7 7 7 7 7 6 6 6 6
7 6 6 5 5 5 4 3 4 4 4 5 5 4 4 4 4 4 4 4 4 4 4 4 4 5 5 5 5 6 4 5 5 5 6 7 7 7 8 7 6 7 6
7 7 5 5 5 5 4 4 4 5 5 5 5 4 4 4 4 4 3 3 3 3 4 4 4 5 5 5 6 6 5 5 4 4 5 5 7 8 9 8 7 8 6
7 6 5 5 5 5 4 4 5 6 5 5 4 4 4 3 3 3 3 3 3 4 4 4 4 3 4 4 5 6 7 6 5 5 5 5 7 8 8 7 7 6 5
6 6 5 6 6 5 5 5 6 6 5 5 4 4 4 4 3 3 3 2 2 3 3 3 3 3 3 3 5 6 7 7 6 5 6 7 7 7 6 6 5 5 4
6 6 6 6 6 6 6 6 6 6 5 4 4 4 3 3 3 3 2 2 2 3 3 3 3 3 3 3 3 3 4 5 5 5 5 6 6 5 5 4 4 4 4
6 6 5 6 7 7 6 6 6 6 5 5 4 4 3 3 3 3 2 3 3 3 3 3 3 3 3 4 5 4 4 4 4 4 4 3 3 3 3 3 3 3 3
6 6 6 6 7 7 6 7 6 5 5 5 5 4 3 3 3 3 2 3 3 4 4 3 4 4 5 5 5 5 5 6 5 4 4 3 3 4 4 4 4 3 3
Wind_Direction
286 300 313 333 345 353 347 336 298 251 228 197 201 201 234 231 209 112 121 117 112 109 138 145 145 142 164 173 170 160 152 143 149 149 144 137 138 141 128 134 129 110 109
295 301 309 322 328 335 329 314 289 265 243 232 228 212 231 215 188 152 130 129 128 134 142 149 156 154 165 173 171 164 161 158 164 173 169 176 186 181 187 180 155 133 125
283 286 289 295 296 303 300 288 272 263 252 244 210 188 227 213 187 176 162 134 143 134 139 157 159 164 174 179 179 176 171 176 180 186 192 192 201 181 191 198 194 190 201
286 286 283 279 277 277 280 276 264 259 254 238 222 209 219 219 219 201 192 173 171 168 165 172 170 167 175 190 188 184 182 182 188 195 226 242 174 185 185 201 209 222 236
283 286 286 279 279 273 268 262 262 257 246 230 221 212 214 217 218 196 190 188 192 189 177 178 176 180 187 198 196 187 189 189 193 196 204 213 203 197 200 207 205 218 240
290 291 292 291 291 289 279 268 266 267 257 237 227 215 209 207 216 212 203 204 210 191 178 187 186 192 195 203 205 196 195 197 198 199 199 206 209 203 206 214 210 216 234
290 290 292 291 288 284 279 271 264 269 265 239 233 219 211 215 226 227 213 213 217 212 196 194 199 204 206 208 211 204 201 202 203 204 206 211 226 222 213 202 208 226 238
297 290 287 283 280 279 272 264 256 260 263 249 236 229 220 227 242 238 225 216 218 217 212 204 206 210 211 210 212 206 204 205 209 211 210 211 219 223 217 205 202 217 236
304 296 291 291 288 279 273 265 257 252 254 255 246 237 232 233 241 229 224 221 221 215 211 215 214 213 210 206 208 211 211 207 211 218 215 213 217 225 227 216 206 212 229
309 303 297 296 291 282 276 270 263 260 271 271 266 259 252 246 241 232 224 221 224 220 213 218 222 217 210 207 210 213 217 214 214 220 220 219 218 220 226 221 220 227 234
304 298 295 293 292 292 286 286 289 289 283 277 268 261 250 241 240 239 237 225 224 221 218 217 222 216 212 210 216 218 214 216 218 222 225 224 221 222 224 221 221 224 228
306 304 301 298 298 298 300 298 293 286 278 268 263 265 261 249 249 250 250 240 226 223 222 220 219 219 218 215 217 220 217 216 220 222 226 229 222 229 228 221 222 224 229
309 308 307 304 299 295 293 290 291 291 288 270 257 266 274 276 269 266 258 248 237 229 226 223 222 220 221 221 222 222 220 221 224 226 226 230 226 230 236 229 226 227 230
305 303 304 305 304 301 299 298 298 297 289 272 268 270 275 275 270 265 261 249 240 233 230 229 228 226 224 224 224 225 224 227 230 231 231 229 230 230 236 235 230 226 227
308 303 304 306 307 305 305 305 304 303 293 273 270 276 277 272 268 264 260 251 241 239 234 232 234 231 230 227 224 226 227 229 232 235 234 233 236 238 236 236 232 223 223
308 306 307 306 306 305 304 301 300 303 295 279 276 280 278 277 272 263 255 251 244 240 236 235 234 234 236 233 227 229 230 231 231 235 237 236 235 240 242 246 242 233 223
312 311 307 301 303 303 300 298 300 305 303 294 295 294 283 280 278 275 264 256 256 244 239 241 239 239 244 238 230 228 230 234 236 237 236 235 235 237 239 242 239 240 237
315 315 313 313 314 308 305 306 310 310 308 304 305 304 292 288 288 283 275 264 258 248 245 244 242 243 246 242 236 232 232 236 239 241 240 235 235 234 237 238 235 238 238
316 315 314 315 320 318 311 314 322 323 319 314 311 309 295 287 285 280 276 264 255 250 248 248 243 241 243 237 237 236 235 238 242 246 246 241 237 234 238 232 231 240 247
326 326 326 327 328 325 322 319 324 324 319 314 310 309 301 285 280 280 279 267 255 253 253 253 252 250 252 246 240 237 234 238 246 249 249 244 243 241 240 234 227 234 241
330 333 334 334 331 330 330 328 327 322 319 318 315 314 308 299 289 288 286 270 256 252 249 252 255 254 254 248 238 237 235 236 244 248 251 250 247 249 251 248 240 237 242
334 337 337 334 336 340 340 336 328 324 326 325 324 323 319 313 308 300 294 279 257 250 249 250 256 256 252 246 237 235 237 245 243 246 251 253 253 255 254 252 246 238 235
329 332 332 330 336 340 335 327 323 325 326 328 326 325 325 321 316 303 295 291 278 261 249 247 250 252 251 246 245 242 241 247 251 253 256 261 258 257 253 245 239 226 226
325 329 332 332 332 333 331 323 323 325 323 325 326 324 319 320 321 312 301 293 285 271 255 246 248 259 259 260 257 249 247 248 252 258 259 262 255 250 248 239 227 226 230
323 326 326 322 322 328 327 327 330 329 326 325 325 322 317 314 311 310 306 295 290 289 273 256 256 259 260 265 268 259 251 248 246 250 253 250 249 243 240 237 234 235 231
319 322 321 320 322 327 328 331 333 330 326 325 324 321 317 312 308 306 307 307 297 312 309 295 272 269 272 280 277 272 269 262 249 246 244 246 249 249 246 240 237 240 239
Height
1506 1505 1504 1503 1502 1502 1501 1501 1501 1501 1501 1501 1501 1501 1502 1502 1503 1504 1506 1507 1509 1511 1512 1513 1515 1517 1520 1522 1523 1525 1527 1529 1531 1534 1535 1537 1539 1540 1541 1542 1543 1544 1545
1502 1502 1501 1501 1500 1499 1499 1499 1498 1499 1499 1499 1499 1499 1499 1499 1500 1501 1503 1505 1506 1508 1509 1510 1512 1514 1516 1519 1521 1522 1524 1526 1528 1531 1533 1535 1538 1538 1539 1540 1541 1542 1543
1500 1499 1499 1498 1498 1497 1497 1497 1496 1496 1496 1496 1497 1497 1497 1497 1498 1498 1500 1502 1503 1505 1506 1507 1509 1511 1513 1515 1517 1519 1521 1523 1526 1528 1530 1532 1532 1534 1536 1537 1538 1539 1540
1498 1497 1496 1495 1495 1495 1494 1494 1494 1493 1493 1494 1494 1494 1494 1494 1495 1496 1497 1499 1500 1501 1503 1504 1506 1507 1510 1512 1514 1516 1518 1520 1522 1525 1526 1528 1528 1531 1532 1534 1535 1536 1537
1496 1495 1494 1493 1492 1492 1492 1491 1491 1491 1491 1491 1491 1492 1492 1492 1493 1494 1495 1496 1497 1498 1500 1501 1503 1504 1506 1508 1510 1512 1514 1516 1519 1520 1522 1524 1526 1527 1528 1530 1532 1533 1534
1494 1493 1492 1491 1490 1489 1489 1488 1488 1487 1487 1487 1488 1488 1489 1490 1490 1491 1492 1493 1494 1495 1496 1498 1499 1501 1503 1504 1507 1509 1511 1513 1515 1517 1519 1521 1522 1523 1525 1526 1527 1529 1530
1492 1490 1489 1487 1486 1486 1485 1485 1485 1484 1484 1484 1485 1485 1486 1486 1487 1488 1489 1490 1490 1491 1492 1494 1495 1497 1499 1501 1503 1505 1507 1509 1511 1513 1515 1517 1519 1521 1522 1523 1524 1525 1526
1489 1488 1486 1484 1484 1483 1482 1481 1481 1481 1481 1481 1481 1482 1482 1483 1484 1485 1485 1486 1487 1488 1489 1490 1492 1494 1496 1497 1499 1501 1503 1506 1508 1510 1512 1513 1515 1517 1518 1520 1521 1522 1523
1487 1485 1483 1482 1481 1480 1479 1478 1478 1478 1478 1478 1478 1478 1479 1479 1480 1481 1482 1483 1484 1485 1486 1487 1489 1490 1492 1494 1495 1498 1500 1502 1504 1506 1508 1510 1511 1513 1514 1516 1518 1519 1519
1485 1483 1481 1479 1478 1477 1476 1476 1475 1474 1474 1474 1474 1474 1474 1475 1476 1476 1477 1478 1480 1481 1482 1484 1485 1487 1489 1491 1492 1494 1496 1498 1500 1502 1504 1505 1507 1509 1510 1512 1513 1515 1516
1483 1481 1479 1477 1476 1474 1474 1472 1471 1471 1470 1470 1470 1471 1470 1472 1473 1473 1474 1475 1476 1477 1478 1480 1482 1483 1485 1487 1488 1490 1492 1494 1496 1498 1499 1501 1503 1504 1506 1507 1508 1510 1511
1483 1480 1477 1475 1474 1472 1471 1470 1469 1468 1468 1468 1468 1467 1467 1468 1469 1470 1470 1471 1472 1473 1474 1476 1478 1480 1481 1483 1484 1487 1488 1490 1492 1494 1495 1497 1498 1500 1501 1502 1504 1505 1506
1481 1478 1475 1473 1472 1470 1469 1468 1467 1466 1465 1465 1465 1465 1464 1465 1466 1467 1467 1467 1468 1469 1471 1472 1474 1476 1478 1479 1481 1482 1484 1486 1487 1489 1491 1492 1493 1495 1496 1497 1499 1500 1502
1480 1477 1474 1472 1470 1468 1466 1465 1464 1464 1463 1462 1462 1461 1461 1462 1462 1463 1464 1464 1465 1465 1466 1468 1470 1472 1473 1475 1477 1478 1479 1481 1483 1485 1486 1487 1489 1490 1491 1492 1494 1496 1497
1478 1475 1472 1470 1467 1466 1464 1463 1462 1461 1461 1460 1459 1458 1459 1459 1459 1459 1460 1460 1461 1462 1462 1464 1465 1467 1469 1470 1472 1474 1475 1477 1478 1480 1481 1482 1484 1485 1487 1488 1490 1491 1492
1476 1473 1470 1468 1466 1464 1463 1462 1461 1460 1459 1458 1457 1456 1456 1456 1456 1456 1456 1457 1457 1457 1459 1460 1461 1463 1464 1466 1468 1469 1471 1472 1473 1474 1476 1477 1479 1480 1481 1483 1485 1486 1487
1474 1471 1469 1467 1465 1463 1462 1461 1459 1457 1456 1455 1454 1454 1454 1453 1453 1453 1453 1453 1453 1454 1455 1456 1457 1458 1460 1461 1463 1464 1466 1467 1468 1470 1471 1472 1473 1474 1476 1477 1479 1480 1482
1473 1470 1468 1466 1464 1463 1461 1459 1457 1456 1454 1453 1452 1452 1451 1450 1450 1449 1449 1450 1450 1450 1451 1452 1453 1454 1455 1457 1458 1460 1461 1462 1464 1465 1466 1467 1468 1469 1471 1472 1473 1474 1476
1471 1469 1467 1465 1463 1461 1459 1457 1455 1454 1452 1451 1450 1449 1448 1447 1447 1447 1447 1447 1447 1447 1448 1449 1449 1450 1451 1452 1454 1455 1456 1457 1459 1460 1461 1462 1463 1464 1466 1467 1467 1469 1470
1470 1467 1465 1463 1462 1460 1458 1456 1454 1452 1450 1449 1448 1447 1446 1445 1444 1444 1444 1444 1444 1444 1444 1445 1445 1446 1447 1448 1449 1451 1452 1453 1454 1455 1456 1457 1458 1460 1461 1462 1463 1463 1464
1469 1467 1464 1462 1460 1458 1456 1454 1452 1450 1449 1447 1446 1444 1443 1442 1441 1441 1441 1441 1440 1440 1441 1441 1441 1442 1443 1444 1445 1446 1447 1448 1449 1450 1451 1452 1454 1455 1456 1458 1458 1459 1460
1468 1466 1463 1461 1459 1457 1455 1452 1450 1449 1447 1445 1443 1442 1441 1440 1439 1438 1438 1438 1437 1437 1437 1437 1437 1438 1439 1440 1441 1442 1444 1444 1445 1446 1447 1448 1449 1451 1452 1453 1453 1455 1456
1467 1465 1462 1460 1458 1456 1453 1451 1449 1447 1445 1443 1441 1440 1439 1438 1436 1436 1435 1434 1434 1433 1433 1434 1434 1434 1435 1436 1437 1438 1440 1441 1442 1442 1443 1444 1445 1446 1447 1448 1449 1450 1450
1466 1463 1461 1458 1456 1454 1452 1450 1448 1445 1443 1441 1439 1438 1436 1435 1434 1433 1432 1432 1431 1430 1430 1430 1430 1431 1432 1432 1433 1434 1435 1436 1437 1438 1439 1440 1441 1442 1442 1443 1444 1445 1445
1464 1462 1459 1457 1455 1452 1450 1448 1446 1443 1441 1439 1437 1436 1435 1433 1432 1431 1430 1429 1429 1428 1427 1427 1427 1428 1428 1429 1430 1430 1431 1432 1434 1435 1435 1436 1437 1437 1437 1438 1439 1440 1441
1461 1459 1457 1455 1452 1450 1448 1446 1444 1442 1439 1437 1436 1434 1433 1431 1430 1429 1428 1427 1426 1425 1424 1424 1424 1424 1425 1426 1426 1427 1428 1429 1430 1431 1431 1431 1432 1432 1433 1433 1434 1435 1435